Location: Herm
(49.4830°N, 2.4500°W)
Time: 13:33:58
(UTC+01:00)

X-37B - Visible Passes

Search period start: 03 October 2022 00:00
Search period end: 13 October 2022 00:00
Orbit: 329 x 342 km, 45.0° (Epoch: 29 September)

Date Brightness Start Highest point End Pass type
(mag) Time Alt. Az. Time Alt. Az. Time Alt. Az.
03 Oct 2.5 05:09:46 20° SE 05:09:46 20° SE 05:11:04 10° SE visible
03 Oct 2.6 06:41:52 10° WSW 06:43:26 14° SSW 06:44:59 10° S visible
04 Oct 2.3 05:29:32 19° S 05:29:32 19° S 05:31:02 10° SE visible
05 Oct 2.7 05:49:24 13° SSW 05:49:24 13° SSW 05:50:26 10° S visible
